contact:dominique.lefevre@mio.osupytheas.fr, maurice.libes@osupytheas.fr, didier.mallarino@osupytheas.fr
Project:EMSO http://www.emso-fr.org/EMSO-France
Depth: 2436.0 m
Title:EMSO Ligure Ouest : Data MII capteur MICROCAT
DateTime_Computer,Latitude,Longitude,Temperature,Conductivity,Pressure,DateTime_Instrument
DateTime_Computer,Latitude,Longitude,degC,S m-1,dbar,DateTime_Instrument
2019-09-22T00:01:37Z,42.805,6.029,13.3000,4.60000,2469.947,2019-9-22T02:02:01Z
2019-09-22T00:04:41Z,42.805,6.029,13.2999,4.60061,2469.923,2019-9-22T02:05:04Z
2019-09-22T00:07:44Z,42.805,6.029,13.3010,4.60049,2469.923,2019-9-22T02:08:07Z
2019-09-22T00:10:47Z,42.805,6.029,13.3011,4.60026,2469.9,2019-9-22T02:11:11Z
2019-09-22T00:13:50Z,42.805,6.029,13.2974,4.60019,2469.9,2019-9-22T02:14:14Z
2019-09-22T00:16:53Z,42.805,6.029,13.2999,4.60037,2469.937,2019-9-22T02:17:17Z
2019-09-22T00:19:57Z,42.805,6.029,13.3012,4.60017,2469.96,2019-9-22T02:20:20Z
2019-09-22T00:23:00Z,42.805,6.029,13.3013,4.59988,2469.984,2019-9-22T02:23:23Z
2019-09-22T00:26:03Z,42.805,6.029,13.2986,4.60029,2469.947,2019-9-22T02:26:27Z
2019-09-22T00:29:06Z,42.805,6.029,13.3006,4.60005,2469.96,2019-9-22T02:29:30Z
2019-09-22T00:32:09Z,42.805,6.029,13.2996,4.59992,2469.937,2019-9-22T02:32:33Z
2019-09-22T00:35:13Z,42.805,6.029,13.2993,4.60031,2469.937,2019-9-22T02:35:36Z
2019-09-22T00:38:16Z,42.805,6.029,13.3001,4.60032,2469.937,2019-9-22T02:38:39Z
2019-09-22T00:41:19Z,42.805,6.029,13.3009,4.60045,2469.923,2019-9-22T02:41:43Z
2019-09-22T00:44:22Z,42.805,6.029,13.2996,4.60038,2469.9,2019-9-22T02:44:46Z
2019-09-22T00:47:25Z,42.805,6.029,13.3024,4.60006,2469.9,2019-9-22T02:47:49Z
2019-09-22T00:50:29Z,42.805,6.029,13.2979,4.60036,2469.914,2019-9-22T02:50:52Z
2019-09-22T00:53:32Z,42.805,6.029,13.3027,4.60016,2469.9,2019-9-22T02:53:55Z
2019-09-22T00:56:35Z,42.805,6.029,13.2972,4.60014,2469.923,2019-9-22T02:56:59Z
2019-09-22T00:59:38Z,42.805,6.029,13.2977,4.60029,2469.923,2019-9-22T03:00:02Z
2019-09-22T01:02:41Z,42.805,6.029,13.2990,4.60034,2469.9,2019-9-22T03:03:05Z
2019-09-22T01:05:45Z,42.805,6.029,13.3007,4.59982,2469.9,2019-9-22T03:06:08Z
2019-09-22T01:08:48Z,42.805,6.029,13.3006,4.60006,2469.914,2019-9-22T03:09:11Z
2019-09-22T01:11:51Z,42.805,6.029,13.3011,4.60028,2469.937,2019-9-22T03:12:15Z
2019-09-22T01:14:54Z,42.805,6.029,13.3011,4.59978,2469.89,2019-9-22T03:15:18Z
2019-09-22T01:17:57Z,42.805,6.029,13.3009,4.60029,2469.923,2019-9-22T03:18:21Z
2019-09-22T01:21:01Z,42.805,6.029,13.3011,4.60050,2469.914,2019-9-22T03:21:24Z
2019-09-22T01:24:04Z,42.805,6.029,13.3002,4.60032,2469.923,2019-9-22T03:24:27Z
2019-09-22T01:27:07Z,42.805,6.029,13.3004,4.60020,2469.914,2019-9-22T03:27:31Z
2019-09-22T01:30:10Z,42.805,6.029,13.3003,4.60017,2469.9,2019-9-22T03:30:34Z
2019-09-22T01:33:14Z,42.805,6.029,13.3022,4.59998,2469.914,2019-9-22T03:33:37Z
2019-09-22T01:36:17Z,42.805,6.029,13.3006,4.60008,2469.937,2019-9-22T03:36:40Z
2019-09-22T01:39:20Z,42.805,6.029,13.2991,4.59986,2469.923,2019-9-22T03:39:44Z
2019-09-22T01:42:23Z,42.805,6.029,13.3006,4.60043,2469.876,2019-9-22T03:42:47Z
2019-09-22T01:45:26Z,42.805,6.029,13.3008,4.60064,2469.914,2019-9-22T03:45:50Z
2019-09-22T01:48:30Z,42.805,6.029,13.3012,4.60036,2469.923,2019-9-22T03:48:53Z
2019-09-22T01:51:33Z,42.805,6.029,13.2993,4.60042,2469.876,2019-9-22T03:51:56Z
2019-09-22T01:54:36Z,42.805,6.029,13.2998,4.60045,2469.876,2019-9-22T03:55:00Z
2019-09-22T01:57:39Z,42.805,6.029,13.3003,4.60026,2469.9,2019-9-22T03:58:03Z
2019-09-22T02:00:42Z,42.805,6.029,13.3016,4.60009,2469.9,2019-9-22T04:01:06Z
2019-09-22T02:03:46Z,42.805,6.029,13.3020,4.59983,2469.914,2019-9-22T04:04:09Z
2019-09-22T02:06:49Z,42.805,6.029,13.3007,4.60044,2469.9,2019-9-22T04:07:12Z
2019-09-22T02:09:52Z,42.805,6.029,13.2978,4.60041,2469.914,2019-9-22T04:10:16Z
2019-09-22T02:12:55Z,42.805,6.029,13.3016,4.60052,2469.914,2019-9-22T04:13:19Z
2019-09-22T02:15:58Z,42.805,6.029,13.2994,4.60016,2469.89,2019-9-22T04:16:22Z
2019-09-22T02:19:02Z,42.805,6.029,13.2969,4.60043,2469.876,2019-9-22T04:19:25Z
2019-09-22T02:22:05Z,42.805,6.029,13.3000,4.60019,2469.89,2019-9-22T04:22:28Z
2019-09-22T02:25:08Z,42.805,6.029,13.3013,4.60022,2469.876,2019-9-22T04:25:32Z
2019-09-22T02:28:11Z,42.805,6.029,13.3026,4.60021,2469.914,2019-9-22T04:28:35Z
2019-09-22T02:31:14Z,42.805,6.029,13.2993,4.60043,2469.876,2019-9-22T04:31:38Z
2019-09-22T02:34:18Z,42.805,6.029,13.2978,4.60050,2469.9,2019-9-22T04:34:41Z
2019-09-22T02:37:21Z,42.805,6.029,13.2974,4.60022,2469.89,2019-9-22T04:37:44Z
2019-09-22T02:40:24Z,42.805,6.029,13.2983,4.60032,2469.914,2019-9-22T04:40:48Z
2019-09-22T02:43:27Z,42.805,6.029,13.2974,4.60010,2469.9,2019-9-22T04:43:51Z
2019-09-22T02:46:30Z,42.805,6.029,13.2976,4.60016,2469.914,2019-9-22T04:46:54Z
2019-09-22T02:49:34Z,42.805,6.029,13.2980,4.60015,2469.876,2019-9-22T04:49:57Z
2019-09-22T02:52:37Z,42.805,6.029,13.2986,4.60023,2469.853,2019-9-22T04:53:00Z
2019-09-22T02:55:40Z,42.805,6.029,13.3000,4.60023,2469.876,2019-9-22T04:56:04Z
2019-09-22T02:58:43Z,42.805,6.029,13.3015,4.60063,2469.867,2019-9-22T04:59:07Z
2019-09-22T03:01:46Z,42.805,6.029,13.3018,4.59991,2469.867,2019-9-22T05:02:10Z
2019-09-22T03:04:49Z,42.805,6.029,13.2995,4.60054,2469.876,2019-9-22T05:05:13Z
2019-09-22T03:07:53Z,42.805,6.029,13.3017,4.60039,2469.876,2019-9-22T05:08:16Z
2019-09-22T03:10:56Z,42.805,6.029,13.3027,4.60012,2469.853,2019-9-22T05:11:20Z
2019-09-22T03:13:59Z,42.805,6.029,13.2993,4.60000,2469.89,2019-9-22T05:14:23Z
2019-09-22T03:17:02Z,42.805,6.029,13.2993,4.60004,2469.89,2019-9-22T05:17:26Z
2019-09-22T03:20:06Z,42.805,6.029,13.3016,4.60031,2469.9,2019-9-22T05:20:29Z
2019-09-22T03:23:09Z,42.805,6.029,13.3026,4.60026,2469.83,2019-9-22T05:23:32Z
2019-09-22T03:26:12Z,42.805,6.029,13.3029,4.60011,2469.89,2019-9-22T05:26:36Z
2019-09-22T03:29:15Z,42.805,6.029,13.3015,4.59999,2469.853,2019-9-22T05:29:39Z
2019-09-22T03:32:18Z,42.805,6.029,13.3009,4.60046,2469.89,2019-9-22T05:32:42Z
2019-09-22T03:35:22Z,42.805,6.029,13.2996,4.60018,2469.867,2019-9-22T05:35:45Z
2019-09-22T03:38:25Z,42.805,6.029,13.3014,4.60007,2469.89,2019-9-22T05:38:48Z
2019-09-22T03:41:28Z,42.805,6.029,13.3026,4.60044,2469.867,2019-9-22T05:41:52Z
2019-09-22T03:44:31Z,42.805,6.029,13.3004,4.60038,2469.914,2019-9-22T05:44:55Z
2019-09-22T03:47:34Z,42.805,6.029,13.3027,4.60059,2469.867,2019-9-22T05:47:58Z
2019-09-22T03:50:38Z,42.805,6.029,13.3036,4.60059,2469.853,2019-9-22T05:51:01Z
2019-09-22T03:53:41Z,42.805,6.029,13.2972,4.60035,2469.876,2019-9-22T05:54:04Z
2019-09-22T03:56:44Z,42.805,6.029,13.2970,4.60014,2469.867,2019-9-22T05:57:08Z
2019-09-22T03:59:47Z,42.805,6.029,13.2989,4.60008,2469.83,2019-9-22T06:00:11Z
2019-09-22T04:02:50Z,42.805,6.029,13.3003,4.60014,2469.867,2019-9-22T06:03:14Z
2019-09-22T04:05:54Z,42.805,6.029,13.3000,4.60031,2469.853,2019-9-22T06:06:17Z
2019-09-22T04:08:57Z,42.805,6.029,13.2992,4.60045,2469.89,2019-9-22T06:09:20Z
2019-09-22T04:12:00Z,42.805,6.029,13.2976,4.60044,2469.853,2019-9-22T06:12:24Z
2019-09-22T04:15:03Z,42.805,6.029,13.2991,4.60062,2469.876,2019-9-22T06:15:27Z
2019-09-22T04:18:06Z,42.805,6.029,13.2997,4.60051,2469.844,2019-9-22T06:18:30Z
2019-09-22T04:21:10Z,42.805,6.029,13.3004,4.60024,2469.867,2019-9-22T06:21:33Z
2019-09-22T04:24:13Z,42.805,6.029,13.3011,4.60029,2469.876,2019-9-22T06:24:36Z
2019-09-22T04:27:16Z,42.805,6.029,13.3018,4.60030,2469.867,2019-9-22T06:27:40Z
2019-09-22T04:30:19Z,42.805,6.029,13.2998,4.60014,2469.867,2019-9-22T06:30:43Z
2019-09-22T04:33:22Z,42.805,6.029,13.2997,4.60031,2469.83,2019-9-22T06:33:46Z
2019-09-22T04:36:26Z,42.805,6.029,13.3011,4.60024,2469.83,2019-9-22T06:36:49Z
2019-09-22T04:39:29Z,42.805,6.029,13.2991,4.60006,2469.867,2019-9-22T06:39:52Z
2019-09-22T04:42:32Z,42.805,6.029,13.3004,4.60023,2469.853,2019-9-22T06:42:56Z
2019-09-22T04:45:35Z,42.805,6.029,13.3009,4.60035,2469.844,2019-9-22T06:45:59Z
2019-09-22T04:48:39Z,42.805,6.029,13.2998,4.60039,2469.83,2019-9-22T06:49:02Z
2019-09-22T04:51:42Z,42.805,6.029,13.2983,4.60054,2469.844,2019-9-22T06:52:05Z
2019-09-22T04:54:45Z,42.805,6.029,13.2979,4.60049,2469.83,2019-9-22T06:55:09Z
2019-09-22T04:57:48Z,42.805,6.029,13.2991,4.60033,2469.844,2019-9-22T06:58:12Z
2019-09-22T05:00:51Z,42.805,6.029,13.3004,4.60022,2469.821,2019-9-22T07:01:15Z
2019-09-22T05:03:55Z,42.805,6.029,13.2994,4.60010,2469.844,2019-9-22T07:04:18Z
2019-09-22T05:06:58Z,42.805,6.029,13.3001,4.60024,2469.806,2019-9-22T07:07:21Z
2019-09-22T05:10:01Z,42.805,6.029,13.2997,4.60012,2469.844,2019-9-22T07:10:25Z
2019-09-22T05:13:04Z,42.805,6.029,13.3006,4.60032,2469.806,2019-9-22T07:13:28Z
2019-09-22T05:16:07Z,42.805,6.029,13.2990,4.60039,2469.83,2019-9-22T07:16:31Z
2019-09-22T05:19:11Z,42.805,6.029,13.2986,4.60054,2469.806,2019-9-22T07:19:34Z
2019-09-22T05:22:14Z,42.805,6.029,13.2993,4.60027,2469.867,2019-9-22T07:22:37Z
2019-09-22T05:25:17Z,42.805,6.029,13.3004,4.60019,2469.844,2019-9-22T07:25:41Z
2019-09-22T05:28:20Z,42.805,6.029,13.3007,4.60046,2469.844,2019-9-22T07:28:44Z
2019-09-22T05:31:23Z,42.805,6.029,13.3020,4.60024,2469.844,2019-9-22T07:31:47Z
2019-09-22T05:34:27Z,42.805,6.029,13.2989,4.60014,2469.797,2019-9-22T07:34:50Z
2019-09-22T05:37:30Z,42.805,6.029,13.3001,4.60056,2469.83,2019-9-22T07:37:54Z
2019-09-22T05:40:34Z,42.805,6.029,13.3014,4.59999,2469.821,2019-9-22T07:40:57Z
2019-09-22T05:43:37Z,42.805,6.029,13.3008,4.60012,2469.853,2019-9-22T07:44:00Z
2019-09-22T05:46:40Z,42.805,6.029,13.3004,4.60011,2469.83,2019-9-22T07:47:04Z
2019-09-22T05:49:43Z,42.805,6.029,13.3014,4.60029,2469.821,2019-9-22T07:50:07Z
2019-09-22T05:52:46Z,42.805,6.029,13.3011,4.60041,2469.821,2019-9-22T07:53:10Z
2019-09-22T05:55:50Z,42.805,6.029,13.3004,4.60011,2469.83,2019-9-22T07:56:13Z
2019-09-22T05:58:53Z,42.805,6.029,13.3002,4.60029,2469.821,2019-9-22T07:59:17Z
2019-09-22T06:01:56Z,42.805,6.029,13.3002,4.60032,2469.821,2019-9-22T08:02:20Z
2019-09-22T06:04:59Z,42.805,6.029,13.3008,4.59999,2469.844,2019-9-22T08:05:23Z
2019-09-22T06:08:02Z,42.805,6.029,13.2966,4.60011,2469.844,2019-9-22T08:08:26Z
2019-09-22T06:11:06Z,42.805,6.029,13.2976,4.60034,2469.844,2019-9-22T08:11:29Z
2019-09-22T06:14:09Z,42.805,6.029,13.2971,4.60031,2469.821,2019-9-22T08:14:33Z
2019-09-22T06:17:12Z,42.805,6.029,13.2989,4.60029,2469.806,2019-9-22T08:17:36Z
2019-09-22T06:20:16Z,42.805,6.029,13.2992,4.60015,2469.844,2019-9-22T08:20:39Z
2019-09-22T06:23:19Z,42.805,6.029,13.2990,4.60014,2469.821,2019-9-22T08:23:42Z
2019-09-22T06:26:22Z,42.805,6.029,13.3009,4.59976,2469.844,2019-9-22T08:26:46Z
2019-09-22T06:29:25Z,42.805,6.029,13.2995,4.60023,2469.83,2019-9-22T08:29:49Z
2019-09-22T06:32:28Z,42.805,6.029,13.3011,4.60005,2469.844,2019-9-22T08:32:52Z
2019-09-22T06:35:32Z,42.805,6.029,13.3009,4.60026,2469.83,2019-9-22T08:35:55Z
2019-09-22T06:38:35Z,42.805,6.029,13.2986,4.60000,2469.844,2019-9-22T08:38:58Z
2019-09-22T06:41:38Z,42.805,6.029,13.2996,4.60029,2469.83,2019-9-22T08:42:02Z
2019-09-22T06:44:41Z,42.805,6.029,13.2987,4.60031,2469.853,2019-9-22T08:45:05Z
2019-09-22T06:47:44Z,42.805,6.029,13.2998,4.60015,2469.83,2019-9-22T08:48:08Z
2019-09-22T06:50:48Z,42.805,6.029,13.2993,4.60021,2469.853,2019-9-22T08:51:11Z
2019-09-22T06:53:51Z,42.805,6.029,13.2995,4.60042,2469.867,2019-9-22T08:54:14Z
2019-09-22T06:56:54Z,42.805,6.029,13.3005,4.60024,2469.83,2019-9-22T08:57:18Z
2019-09-22T06:59:57Z,42.805,6.029,13.2971,4.60036,2469.853,2019-9-22T09:00:21Z
2019-09-22T07:03:00Z,42.805,6.029,13.2997,4.60016,2469.844,2019-9-22T09:03:24Z
2019-09-22T07:06:04Z,42.805,6.029,13.3015,4.59997,2469.83,2019-9-22T09:06:27Z
2019-09-22T07:09:07Z,42.805,6.029,13.3014,4.60013,2469.797,2019-9-22T09:09:30Z
2019-09-22T07:12:10Z,42.805,6.029,13.3019,4.60047,2469.844,2019-9-22T09:12:34Z
2019-09-22T07:15:13Z,42.805,6.029,13.2999,4.60028,2469.806,2019-9-22T09:15:37Z
2019-09-22T07:18:16Z,42.805,6.029,13.3006,4.60014,2469.853,2019-9-22T09:18:40Z
2019-09-22T07:21:20Z,42.805,6.029,13.2997,4.60010,2469.83,2019-9-22T09:21:43Z
2019-09-22T07:24:23Z,42.805,6.029,13.2996,4.60032,2469.806,2019-9-22T09:24:46Z
2019-09-22T07:27:26Z,42.805,6.029,13.3006,4.60023,2469.83,2019-9-22T09:27:50Z
2019-09-22T07:30:29Z,42.805,6.029,13.3005,4.60044,2469.89,2019-9-22T09:30:53Z
2019-09-22T07:33:32Z,42.805,6.029,13.3006,4.60024,2469.844,2019-9-22T09:33:56Z
2019-09-22T07:36:35Z,42.805,6.029,13.2973,4.60021,2469.783,2019-9-22T09:36:59Z
2019-09-22T07:39:39Z,42.805,6.029,13.2982,4.60030,2469.83,2019-9-22T09:40:02Z
2019-09-22T07:42:42Z,42.805,6.029,13.2988,4.60031,2469.844,2019-9-22T09:43:06Z
2019-09-22T07:45:45Z,42.805,6.029,13.2998,4.60011,2469.844,2019-9-22T09:46:09Z
2019-09-22T07:48:48Z,42.805,6.029,13.3011,4.60023,2469.867,2019-9-22T09:49:12Z
2019-09-22T07:51:51Z,42.805,6.029,13.3001,4.60019,2469.853,2019-9-22T09:52:15Z
2019-09-22T07:54:55Z,42.805,6.029,13.3012,4.60028,2469.876,2019-9-22T09:55:18Z
2019-09-22T07:57:58Z,42.805,6.029,13.2992,4.60019,2469.867,2019-9-22T09:58:21Z
2019-09-22T08:01:01Z,42.805,6.029,13.2991,4.60032,2469.821,2019-9-22T10:01:25Z
2019-09-22T08:04:04Z,42.805,6.029,13.2983,4.60041,2469.853,2019-9-22T10:04:28Z
2019-09-22T08:07:08Z,42.805,6.029,13.2970,4.60013,2469.853,2019-9-22T10:07:31Z
2019-09-22T08:10:11Z,42.805,6.029,13.2990,4.60030,2469.89,2019-9-22T10:10:35Z
2019-09-22T08:13:14Z,42.805,6.029,13.2985,4.60037,2469.89,2019-9-22T10:13:38Z
2019-09-22T08:16:17Z,42.805,6.029,13.2995,4.60026,2469.821,2019-9-22T10:16:41Z
2019-09-22T08:19:21Z,42.805,6.029,13.2986,4.60034,2469.853,2019-9-22T10:19:44Z
2019-09-22T08:22:24Z,42.805,6.029,13.2992,4.60033,2469.89,2019-9-22T10:22:47Z
2019-09-22T08:25:27Z,42.805,6.029,13.2979,4.60000,2469.844,2019-9-22T10:25:51Z
2019-09-22T08:28:30Z,42.805,6.029,13.2973,4.59999,2469.876,2019-9-22T10:28:54Z
2019-09-22T08:31:33Z,42.805,6.029,13.2979,4.60009,2469.83,2019-9-22T10:31:57Z
2019-09-22T08:34:37Z,42.805,6.029,13.2970,4.60016,2469.867,2019-9-22T10:35:00Z
2019-09-22T08:37:40Z,42.805,6.029,13.2974,4.60014,2469.853,2019-9-22T10:38:03Z
2019-09-22T08:40:43Z,42.805,6.029,13.2978,4.59989,2469.876,2019-9-22T10:41:07Z
2019-09-22T08:43:46Z,42.805,6.029,13.2971,4.60008,2469.881,2019-9-22T10:44:10Z
2019-09-22T08:46:49Z,42.805,6.029,13.2971,4.60019,2469.853,2019-9-22T10:47:13Z
2019-09-22T08:49:53Z,42.805,6.029,13.2978,4.60023,2469.876,2019-9-22T10:50:16Z
2019-09-22T08:52:56Z,42.805,6.029,13.2996,4.60033,2469.853,2019-9-22T10:53:20Z
2019-09-22T08:55:59Z,42.805,6.029,13.2967,4.60037,2469.876,2019-9-22T10:56:23Z
2019-09-22T08:59:02Z,42.805,6.029,13.2973,4.60032,2469.89,2019-9-22T10:59:26Z
2019-09-22T09:02:06Z,42.805,6.029,13.2983,4.60046,2469.853,2019-9-22T11:02:29Z
2019-09-22T09:05:09Z,42.805,6.029,13.2967,4.60032,2469.89,2019-9-22T11:05:32Z
2019-09-22T09:08:12Z,42.805,6.029,13.2978,4.60021,2469.853,2019-9-22T11:08:36Z
2019-09-22T09:11:15Z,42.805,6.029,13.2990,4.60024,2469.876,2019-9-22T11:11:39Z
2019-09-22T09:14:18Z,42.805,6.029,13.2983,4.60031,2469.876,2019-9-22T11:14:42Z
2019-09-22T09:17:22Z,42.805,6.029,13.2968,4.60033,2469.89,2019-9-22T11:17:45Z
2019-09-22T09:20:25Z,42.805,6.029,13.2974,4.60039,2469.89,2019-9-22T11:20:48Z
2019-09-22T09:23:28Z,42.805,6.029,13.2971,4.60021,2469.876,2019-9-22T11:23:52Z
2019-09-22T09:26:31Z,42.805,6.029,13.2981,4.60024,2469.9,2019-9-22T11:26:55Z
2019-09-22T09:29:34Z,42.805,6.029,13.2974,4.59996,2469.914,2019-9-22T11:29:58Z
2019-09-22T09:32:38Z,42.805,6.029,13.2973,4.59994,2469.853,2019-9-22T11:33:01Z
2019-09-22T09:35:41Z,42.805,6.029,13.2980,4.60012,2469.914,2019-9-22T11:36:05Z
2019-09-22T09:38:44Z,42.805,6.029,13.2982,4.60021,2469.914,2019-9-22T11:39:08Z
2019-09-22T09:41:47Z,42.805,6.029,13.2975,4.60024,2469.9,2019-9-22T11:42:11Z
2019-09-22T09:44:51Z,42.805,6.029,13.2983,4.60007,2469.89,2019-9-22T11:45:14Z
2019-09-22T09:47:54Z,42.805,6.029,13.2978,4.60015,2469.89,2019-9-22T11:48:17Z
2019-09-22T09:50:57Z,42.805,6.029,13.2981,4.60020,2469.937,2019-9-22T11:51:21Z
2019-09-22T09:54:00Z,42.805,6.029,13.2976,4.60014,2469.96,2019-9-22T11:54:24Z
2019-09-22T09:57:03Z,42.805,6.029,13.2976,4.60013,2469.923,2019-9-22T11:57:27Z
2019-09-22T10:00:07Z,42.805,6.029,13.2982,4.60008,2469.914,2019-9-22T12:00:30Z
2019-09-22T10:03:10Z,42.805,6.029,13.2995,4.60001,2469.923,2019-9-22T12:03:33Z
2019-09-22T10:06:13Z,42.805,6.029,13.2970,4.60003,2469.876,2019-9-22T12:06:37Z
2019-09-22T10:09:16Z,42.805,6.029,13.2975,4.60006,2469.914,2019-9-22T12:09:40Z
2019-09-22T10:12:19Z,42.805,6.029,13.2968,4.60013,2469.89,2019-9-22T12:12:43Z
2019-09-22T10:15:23Z,42.805,6.029,13.2971,4.60009,2469.876,2019-9-22T12:15:46Z
2019-09-22T10:18:26Z,42.805,6.029,13.2967,4.60020,2469.909,2019-9-22T12:18:49Z
2019-09-22T10:21:29Z,42.805,6.029,13.2974,4.60014,2469.923,2019-9-22T12:21:53Z
2019-09-22T10:24:32Z,42.805,6.029,13.2976,4.60024,2469.876,2019-9-22T12:24:56Z
2019-09-22T10:27:35Z,42.805,6.029,13.2979,4.60011,2469.9,2019-9-22T12:27:59Z
2019-09-22T10:30:39Z,42.805,6.029,13.2982,4.60013,2469.914,2019-9-22T12:31:02Z
2019-09-22T10:33:42Z,42.805,6.029,13.2981,4.60003,2469.937,2019-9-22T12:34:05Z
2019-09-22T10:36:45Z,42.805,6.029,13.2976,4.59996,2469.914,2019-9-22T12:37:09Z
2019-09-22T10:39:48Z,42.805,6.029,13.2971,4.60004,2469.923,2019-9-22T12:40:12Z
2019-09-22T10:42:51Z,42.805,6.029,13.2980,4.59995,2469.937,2019-9-22T12:43:15Z
2019-09-22T10:45:55Z,42.805,6.029,13.2973,4.60011,2469.923,2019-9-22T12:46:18Z
2019-09-22T10:48:58Z,42.805,6.029,13.2969,4.60009,2469.923,2019-9-22T12:49:21Z
2019-09-22T10:52:01Z,42.805,6.029,13.2979,4.60009,2469.937,2019-9-22T12:52:25Z
2019-09-22T10:55:04Z,42.805,6.029,13.2974,4.60009,2469.909,2019-9-22T12:55:28Z
2019-09-22T10:58:08Z,42.805,6.029,13.2991,4.60031,2469.923,2019-9-22T12:58:31Z
2019-09-22T11:01:11Z,42.805,6.029,13.2987,4.60016,2469.947,2019-9-22T13:01:34Z
2019-09-22T11:04:14Z,42.805,6.029,13.2976,4.60017,2469.937,2019-9-22T13:04:38Z
2019-09-22T11:07:17Z,42.805,6.029,13.2973,4.60014,2469.96,2019-9-22T13:07:41Z
2019-09-22T11:10:20Z,42.805,6.029,13.2974,4.59993,2469.923,2019-9-22T13:10:44Z
2019-09-22T11:13:24Z,42.805,6.029,13.2968,4.59991,2469.9,2019-9-22T13:13:47Z
2019-09-22T11:16:27Z,42.805,6.029,13.2971,4.60019,2469.96,2019-9-22T13:16:51Z
2019-09-22T11:19:30Z,42.805,6.029,13.2987,4.60015,2469.97,2019-9-22T13:19:54Z
2019-09-22T11:22:33Z,42.805,6.029,13.2964,4.59994,2469.937,2019-9-22T13:22:57Z
2019-09-22T11:25:36Z,42.805,6.029,13.2967,4.59986,2469.947,2019-9-22T13:26:00Z
2019-09-22T11:28:40Z,42.805,6.029,13.2970,4.59986,2469.97,2019-9-22T13:29:03Z
2019-09-22T11:31:43Z,42.805,6.029,13.2968,4.60009,2469.923,2019-9-22T13:32:06Z
2019-09-22T11:34:46Z,42.805,6.029,13.2978,4.59999,2469.947,2019-9-22T13:35:10Z
2019-09-22T11:37:49Z,42.805,6.029,13.2968,4.59993,2469.923,2019-9-22T13:38:13Z
2019-09-22T11:40:53Z,42.805,6.029,13.2962,4.60001,2469.923,2019-9-22T13:41:16Z
2019-09-22T11:43:56Z,42.805,6.029,13.2967,4.59987,2469.937,2019-9-22T13:44:19Z
2019-09-22T11:46:59Z,42.805,6.029,13.2970,4.59993,2469.947,2019-9-22T13:47:23Z
2019-09-22T11:50:02Z,42.805,6.029,13.2971,4.59997,2469.96,2019-9-22T13:50:26Z
2019-09-22T11:53:05Z,42.805,6.029,13.2968,4.60027,2469.96,2019-9-22T13:53:29Z
2019-09-22T11:56:09Z,42.805,6.029,13.3000,4.60008,2469.923,2019-9-22T13:56:32Z
2019-09-22T11:59:12Z,42.805,6.029,13.2966,4.59988,2469.923,2019-9-22T13:59:35Z
2019-09-22T12:02:15Z,42.805,6.029,13.2967,4.59995,2469.984,2019-9-22T14:02:39Z
2019-09-22T12:05:18Z,42.805,6.029,13.2962,4.59987,2469.97,2019-9-22T14:05:42Z
2019-09-22T12:08:21Z,42.805,6.029,13.2967,4.59990,2469.96,2019-9-22T14:08:45Z
2019-09-22T12:11:25Z,42.805,6.029,13.2971,4.60026,2469.923,2019-9-22T14:11:48Z
2019-09-22T12:14:28Z,42.805,6.029,13.2982,4.60014,2469.947,2019-9-22T14:14:52Z
2019-09-22T12:17:31Z,42.805,6.029,13.2976,4.60014,2469.947,2019-9-22T14:17:55Z
2019-09-22T12:20:34Z,42.805,6.029,13.2974,4.60001,2469.947,2019-9-22T14:20:58Z
2019-09-22T12:23:38Z,42.805,6.029,13.2968,4.60004,2469.923,2019-9-22T14:24:01Z
2019-09-22T12:26:41Z,42.805,6.029,13.2969,4.60009,2469.947,2019-9-22T14:27:04Z
2019-09-22T12:29:44Z,42.805,6.029,13.2968,4.59992,2469.96,2019-9-22T14:30:08Z
2019-09-22T12:32:47Z,42.805,6.029,13.2968,4.60032,2469.947,2019-9-22T14:33:11Z
2019-09-22T12:35:50Z,42.805,6.029,13.2978,4.59994,2469.96,2019-9-22T14:36:14Z
2019-09-22T12:38:54Z,42.805,6.029,13.2974,4.60026,2469.923,2019-9-22T14:39:17Z
2019-09-22T12:41:57Z,42.805,6.029,13.2977,4.60018,2469.947,2019-9-22T14:42:20Z
2019-09-22T12:45:00Z,42.805,6.029,13.2976,4.60011,2469.96,2019-9-22T14:45:24Z
2019-09-22T12:48:03Z,42.805,6.029,13.2976,4.60016,2469.937,2019-9-22T14:48:27Z
2019-09-22T12:51:06Z,42.805,6.029,13.2978,4.60029,2469.96,2019-9-22T14:51:30Z
2019-09-22T12:54:10Z,42.805,6.029,13.2993,4.60023,2469.947,2019-9-22T14:54:33Z
2019-09-22T12:57:13Z,42.805,6.029,13.2990,4.60014,2469.937,2019-9-22T14:57:36Z
2019-09-22T13:00:16Z,42.805,6.029,13.3001,4.60016,2469.96,2019-9-22T15:00:40Z
2019-09-22T13:03:19Z,42.805,6.029,13.3001,4.60033,2469.947,2019-9-22T15:03:43Z
2019-09-22T13:06:22Z,42.805,6.029,13.2997,4.60039,2469.96,2019-9-22T15:06:46Z
2019-09-22T13:09:26Z,42.805,6.029,13.2998,4.60034,2469.923,2019-9-22T15:09:49Z
2019-09-22T13:12:29Z,42.805,6.029,13.2990,4.60021,2469.947,2019-9-22T15:12:52Z
2019-09-22T13:15:32Z,42.805,6.029,13.2971,4.60041,2469.947,2019-9-22T15:15:56Z
2019-09-22T13:18:35Z,42.805,6.029,13.3004,4.60033,2469.947,2019-9-22T15:18:59Z
2019-09-22T13:21:38Z,42.805,6.029,13.2994,4.60032,2469.947,2019-9-22T15:22:02Z
2019-09-22T13:24:42Z,42.805,6.029,13.3000,4.60021,2469.923,2019-9-22T15:25:05Z
2019-09-22T13:27:45Z,42.805,6.029,13.3009,4.60046,2469.96,2019-9-22T15:28:08Z
2019-09-22T13:30:48Z,42.805,6.029,13.3022,4.60009,2469.947,2019-9-22T15:31:12Z
2019-09-22T13:33:51Z,42.805,6.029,13.2997,4.60019,2469.97,2019-9-22T15:34:15Z
2019-09-22T13:36:54Z,42.805,6.029,13.3010,4.60061,2469.96,2019-9-22T15:37:18Z
2019-09-22T13:39:58Z,42.805,6.029,13.3026,4.60033,2469.96,2019-9-22T15:40:21Z
2019-09-22T13:43:01Z,42.805,6.029,13.2986,4.60024,2469.947,2019-9-22T15:43:24Z
2019-09-22T13:46:04Z,42.805,6.029,13.2990,4.60046,2469.984,2019-9-22T15:46:28Z
2019-09-22T13:49:07Z,42.805,6.029,13.3005,4.60046,2469.97,2019-9-22T15:49:31Z
2019-09-22T13:52:11Z,42.805,6.029,13.2997,4.60021,2469.96,2019-9-22T15:52:34Z
2019-09-22T13:55:14Z,42.805,6.029,13.2996,4.60016,2469.97,2019-9-22T15:55:37Z
2019-09-22T13:58:17Z,42.805,6.029,13.2990,4.60070,2469.923,2019-9-22T15:58:41Z
2019-09-22T14:01:20Z,42.805,6.029,13.3015,4.60052,2469.947,2019-9-22T16:01:44Z
2019-09-22T14:04:23Z,42.805,6.029,13.3024,4.60022,2469.97,2019-9-22T16:04:47Z
2019-09-22T14:07:27Z,42.805,6.029,13.3022,4.60066,2469.96,2019-9-22T16:07:50Z
2019-09-22T14:10:30Z,42.805,6.029,13.2997,4.60047,2469.947,2019-9-22T16:10:53Z
2019-09-22T14:13:33Z,42.805,6.029,13.3011,4.60039,2469.937,2019-9-22T16:13:57Z
2019-09-22T14:16:36Z,42.805,6.029,13.3030,4.60044,2469.923,2019-9-22T16:17:00Z
2019-09-22T14:19:39Z,42.805,6.029,13.3014,4.60037,2469.9,2019-9-22T16:20:03Z
2019-09-22T14:22:43Z,42.805,6.029,13.3006,4.60053,2469.96,2019-9-22T16:23:06Z
2019-09-22T14:25:46Z,42.805,6.029,13.3019,4.60040,2469.96,2019-9-22T16:26:10Z
2019-09-22T14:28:49Z,42.805,6.029,13.2998,4.60048,2469.97,2019-9-22T16:29:13Z
2019-09-22T14:31:52Z,42.805,6.029,13.3007,4.60029,2469.96,2019-9-22T16:32:16Z
2019-09-22T14:34:56Z,42.805,6.029,13.3004,4.60008,2469.97,2019-9-22T16:35:19Z
2019-09-22T14:37:59Z,42.805,6.029,13.2982,4.60058,2469.96,2019-9-22T16:38:22Z
2019-09-22T14:41:02Z,42.805,6.029,13.3029,4.60018,2469.947,2019-9-22T16:41:26Z
2019-09-22T14:44:05Z,42.805,6.029,13.3007,4.60033,2469.937,2019-9-22T16:44:29Z
2019-09-22T14:47:09Z,42.805,6.029,13.2996,4.60056,2469.96,2019-9-22T16:47:32Z
2019-09-22T14:50:12Z,42.805,6.029,13.3001,4.60031,2469.96,2019-9-22T16:50:35Z
2019-09-22T14:53:15Z,42.805,6.029,13.2992,4.60041,2469.984,2019-9-22T16:53:39Z
2019-09-22T14:56:18Z,42.805,6.029,13.2998,4.60030,2469.96,2019-9-22T16:56:42Z
2019-09-22T14:59:21Z,42.805,6.029,13.2997,4.60038,2469.96,2019-9-22T16:59:45Z
2019-09-22T15:02:25Z,42.805,6.029,13.2987,4.60031,2469.937,2019-9-22T17:02:48Z
2019-09-22T15:05:28Z,42.805,6.029,13.2996,4.60023,2469.923,2019-9-22T17:05:51Z
2019-09-22T15:08:31Z,42.805,6.029,13.2976,4.60038,2469.96,2019-9-22T17:08:55Z
2019-09-22T15:11:34Z,42.805,6.029,13.2996,4.60027,2469.96,2019-9-22T17:11:58Z
2019-09-22T15:14:37Z,42.805,6.029,13.2995,4.60019,2469.923,2019-9-22T17:15:01Z